Wind_Speed
14 12 15 13 11 5 6 4 6 7 6 6 6 6 6 3 1 5 9 14 16 17 16 23 18 15 19 25 26 18 21 21 16 14 13 13 11 11 8 9 10 12 8 9
15 15 17 8 6 3 5 8 12 6 5 8 11 12 9 7 6 7 7 7 12 15 20 23 22 25 21 28 28 27 21 24 24 22 21 17 10 17 12 11 8 12 11 12
17 19 13 5 5 6 10 13 3 5 4 7 9 28 17 29 5 3 1 6 9 9 21 22 22 21 20 30 29 29 28 22 26 21 19 19 15 12 15 15 12 15 14 14
16 17 3 7 8 9 15 1 3 7 10 12 16 7 13 29 25 8 6 1 8 9 3 15 22 24 23 18 28 26 25 24 21 26 18 20 17 15 14 16 15 16 18 14
14 12 11 8 12 12 13 4 8 10 10 14 5 10 3 10 19 6 9 10 7 2 5 6 13 24 30 23 19 23 24 22 21 23 25 16 20 17 17 13 15 16 15 17
17 5 9 10 11 13 10 11 12 15 14 13 17 10 5 6 2 7 9 12 9 13 8 3 15 27 19 23 20 19 25 24 22 19 20 27 17 21 14 18 17 14 19 20
12 12 11 10 12 13 11 13 12 5 12 12 19 13 8 22 7 11 11 12 14 12 15 14 13 18 18 10 19 14 22 21 19 20 19 21 27 19 18 18 18 20 16 18
13 14 17 14 14 14 17 16 12 7 16 14 14 12 9 14 11 13 13 13 14 16 15 13 13 18 25 27 14 11 13 17 16 19 20 23 21 21 20 21 18 23 20 18
9 5 9 8 12 13 17 13 13 16 10 7 9 6 10 14 11 11 12 14 14 14 14 14 15 19 20 18 22 28 24 5 8 14 20 23 25 22 21 20 21 22 25 25
16 5 18 10 8 12 15 11 13 9 6 4 3 10 6 11 8 9 12 11 12 13 13 12 14 16 15 13 16 17 22 23 18 15 17 8 21 24 23 22 23 21 20 24
13 14 5 9 9 16 3 4 6 5 7 3 3 3 12 14 27 10 10 11 9 10 11 11 13 15 15 15 15 15 17 19 22 19 17 17 15 10 15 24 24 23 23 24
12 15 9 17 19 7 8 8 8 4 3 6 13 2 18 25 22 11 10 10 8 8 9 9 12 13 14 15 16 15 13 14 16 18 16 16 17 16 14 7 9 15 16 18
6 9 10 14 6 26 10 14 14 14 9 20 2 5 17 18 11 11 10 10 5 7 7 8 10 11 12 13 13 15 15 16 14 16 17 16 14 12 9 6 6 6 5 8
3 13 12 4 7 1 18 20 15 17 7 8 11 21 24 18 14 11 9 6 5 4 4 6 6 12 12 12 13 14 16 17 18 16 18 15 17 16 12 14 13 14 14 14
6 13 1 13 8 11 20 17 12 21 16 11 16 11 20 15 11 12 9 7 5 6 8 10 9 9 11 12 13 15 16 18 19 18 18 19 20 17 15 11 12 13 13 14
12 12 15 13 14 10 31 23 22 27 9 7 9 16 17 15 8 8 6 7 7 9 9 9 9 11 12 13 14 15 17 17 17 18 20 22 22 20 17 16 16 15 14 14
11 10 8 9 11 22 20 8 3 6 4 4 4 12 12 9 7 6 6 10 9 6 8 9 10 11 11 14 17 18 18 21 22 21 20 21 23 23 19 17 16 17 18 18
7 5 8 12 13 14 7 7 2 1 5 4 1 9 10 11 8 8 13 8 5 7 9 9 12 13 13 14 15 14 16 18 19 20 19 22 23 23 23 21 18 17 17 19
11 9 9 10 13 16 20 9 2 3 1 5 5 12 10 8 5 10 7 6 5 7 9 11 12 14 15 14 17 20 18 18 21 18 17 20 23 24 23 22 23 22 20 19
3 8 10 11 14 17 7 12 11 4 1 3 7 5 6 4 5 6 5 5 6 7 8 10 13 14 14 14 15 17 19 19 18 21 22 22 22 22 23 23 26 24 23 22
5 3 9 11 10 15 12 9 3 4 5 8 9 9 5 1 6 5 3 5 6 8 10 11 12 13 14 17 18 17 18 18 20 20 22 23 24 23 24 27 26 24 24 23
10 6 8 10 12 10 12 4 4 7 10 10 8 7 5 3 2 2 5 5 7 8 10 12 13 14 15 15 16 17 18 20 22 22 22 24 25 21 22 26 27 26 24 23
8 5 5 5 5 7 9 10 7 8 10 6 5 9 3 1 1 3 3 5 7 9 11 11 13 15 15 16 15 17 19 22 23 23 23 23 25 24 24 25 26 23 24 23
9 6 5 1 7 6 8 7 8 5 10 9 7 5 2 2 2 3 5 6 7 10 9 10 12 13 14 14 15 15 18 19 20 23 24 25 25 28 27 24 23 22 23 24
4 3 3 7 9 6 5 6 7 7 8 10 6 4 4 3 3 4 4 5 7 9 10 11 11 13 14 15 16 16 17 19 21 21 22 23 22 23 25 22 20 22 24 23
6 4 6 3 7 3 3 9 7 10 6 5 4 5 5 3 2 2 3 4 7 8 10 9 10 12 14 15 16 17 17 20 20 20 19 20 22 23 24 23 22 22 19 22
Wind_Direction
207 234 241 251 322 91 220 15 273 133 121 243 105 84 36 344 282 162 165 171 173 179 166 161 175 177 167 161 179 181 177 188 198 189 194 223 225 235 238 220 228 188 199 225
222 225 256 14 37 272 239 251 251 127 120 250 131 98 64 34 23 5 330 181 191 188 166 165 170 176 186 165 184 187 193 199 198 207 208 218 232 217 218 228 230 212 219 231
238 221 216 38 197 225 229 250 50 333 272 245 174 45 340 4 32 104 332 294 297 258 172 163 172 177 187 166 180 192 195 203 202 205 208 226 242 218 217 223 237 215 217 227
228 256 175 232 249 254 271 81 18 271 254 260 202 120 22 353 320 20 42 26 190 259 259 197 167 171 189 194 175 188 200 199 199 207 208 216 228 241 223 215 232 224 220 228
223 228 219 217 237 243 275 3 293 274 261 273 141 96 265 198 272 58 58 40 32 195 235 210 225 178 170 186 193 179 190 197 205 211 221 229 220 237 240 241 241 233 232 233
259 208 263 243 232 251 275 287 270 253 249 247 241 116 236 227 66 91 68 70 46 47 53 348 337 174 157 172 185 191 185 192 200 213 224 225 238 235 242 236 247 248 234 232
229 251 212 254 265 244 235 250 255 358 293 262 117 98 191 226 219 119 100 74 78 61 46 55 43 29 33 150 176 190 176 183 197 218 228 229 239 246 251 250 252 256 256 254
208 214 216 202 226 253 230 246 269 151 285 246 36 123 133 182 131 115 106 89 72 66 69 59 47 56 34 21 22 173 165 175 194 219 234 238 244 240 243 244 247 246 254 256
277 351 172 220 204 227 254 264 288 295 277 265 115 96 224 136 140 122 100 95 86 81 69 56 49 38 41 39 35 41 48 78 208 234 228 234 241 243 248 251 246 246 251 252
275 182 209 212 252 250 265 327 310 351 337 4 88 76 9 337 300 131 110 98 93 85 77 69 60 53 35 34 30 39 36 29 17 15 18 287 256 248 241 249 253 250 250 247
275 296 142 35 254 246 150 324 357 339 40 101 335 138 141 286 273 148 114 99 76 78 73 71 53 45 51 30 21 16 13 14 9 2 354 351 353 338 277 258 251 253 252 254
246 276 269 208 236 153 177 165 167 134 141 228 240 118 179 191 238 134 117 98 85 68 68 65 69 42 28 24 12 17 8 1 1 358 349 338 332 339 347 307 272 259 267 270
295 239 264 263 202 7 338 25 352 278 152 212 105 101 231 218 161 138 120 118 100 79 47 52 33 48 24 7 9 358 352 354 348 345 345 343 322 323 321 329 328 323 286 279
307 277 324 72 113 179 295 331 5 315 315 14 141 150 182 179 163 137 117 116 101 103 86 66 29 29 13 353 354 349 339 343 336 341 333 328 329 330 307 300 295 299 290 292
245 261 338 160 145 205 253 270 59 310 305 325 343 13 158 160 141 120 142 120 68 34 7 32 23 5 348 344 352 335 333 330 328 334 330 324 325 318 310 299 294 289 288 288
238 255 266 169 146 148 276 225 213 223 291 311 341 81 93 100 121 148 117 72 39 35 16 4 354 345 336 341 331 331 329 338 328 322 321 317 315 310 304 301 296 295 291 290
241 283 330 318 231 168 227 268 297 319 58 38 345 80 112 127 125 82 57 56 51 20 356 347 341 336 344 343 336 329 343 335 331 334 319 311 317 316 312 306 302 295 295 296
300 256 288 296 274 291 281 103 118 320 345 58 221 129 81 45 54 52 66 73 41 6 354 355 350 347 336 330 323 335 333 333 324 321 335 350 345 334 328 322 316 309 300 293
270 301 292 281 280 282 274 137 64 88 21 351 162 115 119 126 165 95 75 49 23 7 8 352 336 335 333 349 348 339 337 335 324 322 325 337 336 333 329 326 321 318 310 307
7 325 279 273 272 276 89 88 88 84 64 103 118 98 111 89 290 85 44 32 11 8 2 351 339 331 335 346 337 335 328 325 329 336 329 325 321 317 314 313 310 309 305 300
238 253 283 271 247 266 112 118 118 253 82 77 84 75 77 49 39 46 28 25 2 6 353 355 342 343 346 340 338 330 326 328 328 325 322 318 314 312 312 305 296 298 295 295
287 269 263 249 268 252 100 125 323 107 111 99 85 86 91 67 48 354 21 10 359 351 355 355 353 347 341 341 337 330 328 324 324 323 319 315 311 303 298 295 291 288 285 284
232 296 342 31 56 91 65 91 126 124 120 106 105 108 116 121 3 23 353 5 0 0 3 356 348 345 344 342 338 333 330 329 327 322 317 312 309 305 296 290 284 281 276 268
198 195 246 217 127 142 113 92 95 68 105 93 84 75 62 33 31 20 12 2 354 3 354 353 348 347 341 340 334 333 329 328 325 321 319 318 311 308 305 295 287 282 267 260
66 101 245 268 154 148 169 146 125 95 97 93 89 83 67 34 39 28 351 10 3 351 347 355 350 343 338 340 332 329 328 327 321 318 313 313 311 308 309 309 313 305 296 291
269 250 235 333 49 108 34 160 152 133 138 124 114 132 107 71 64 24 5 4 0 353 351 346 349 342 336 334 331 329 329 330 325 319 318 313 309 312 313 315 315 320 313 305
Height
749 764 765 745 738 742 748 756 761 746 740 750 759 767 765 749 739 740 743 745 749 751 754 764 771 778 782 789 795 800 803 807 811 814 817 819 819 820 821 823 823 823 825 826
756 768 737 728 736 745 748 756 753 742 737 748 756 774 772 764 757 751 748 742 741 739 739 750 757 766 776 784 790 796 800 803 807 810 814 816 817 817 818 820 821 822 823 823
760 743 726 738 745 755 751 753 750 756 742 738 752 824 811 798 764 757 752 748 741 730 741 742 759 756 771 778 785 791 797 801 805 810 813 814 814 815 815 817 819 819 821 822
748 726 737 744 753 745 758 730 740 751 759 774 740 854 850 831 810 768 757 749 744 736 743 741 749 746 763 773 780 786 793 800 805 809 811 812 812 812 813 814 816 817 818 820
748 742 741 752 748 735 749 728 741 742 754 755 757 816 866 838 827 781 767 756 749 741 734 729 725 739 739 766 776 783 789 796 802 806 809 811 811 811 812 812 814 814 816 817
732 716 727 734 730 730 728 739 741 741 747 775 745 817 855 837 791 784 771 763 757 750 746 743 735 746 739 761 772 779 785 792 798 802 805 807 808 809 810 810 811 813 813 813
744 738 726 725 741 727 735 751 777 797 784 777 745 785 828 807 783 777 775 770 764 761 756 752 752 753 760 763 769 776 782 789 794 799 802 804 804 807 808 809 810 809 810 811
757 766 733 721 736 744 739 739 765 817 803 774 753 801 802 777 772 773 773 772 770 769 767 768 768 768 772 774 776 777 780 786 791 795 798 800 801 802 804 805 806 806 807 807
741 754 712 714 713 725 738 745 718 745 735 752 783 799 795 775 779 780 781 779 779 778 778 778 778 779 782 783 786 784 784 786 789 790 791 795 797 799 801 801 802 803 804 803
727 760 732 719 715 714 726 719 755 745 789 806 799 836 861 831 804 786 785 788 784 782 783 785 786 787 789 789 791 791 790 792 792 792 794 795 794 794 794 797 798 799 800 799
718 729 749 737 737 739 739 754 759 761 799 858 846 855 836 842 827 788 786 787 789 787 786 788 791 791 794 795 795 795 795 794 793 793 793 794 792 792 794 793 793 793 795 797
720 729 745 743 713 706 724 749 764 797 834 836 802 836 820 809 801 783 787 787 790 792 790 790 793 797 798 799 799 798 798 797 797 796 794 793 791 790 792 792 791 791 791 792
720 736 760 746 733 747 746 748 760 755 767 805 803 838 806 799 781 780 786 787 794 792 793 793 794 798 801 803 803 802 801 799 798 796 795 792 790 789 791 790 791 789 788 789
724 735 748 785 806 804 791 767 767 762 752 761 778 787 788 783 783 782 783 787 789 790 792 793 797 800 803 804 803 803 802 801 798 796 794 792 789 788 787 787 786 787 786 785
727 753 749 782 778 789 779 778 786 802 753 766 755 758 768 770 774 778 783 786 789 791 793 795 800 803 804 804 804 804 803 801 799 796 794 791 789 787 785 784 784 783 782 781
720 748 740 779 776 797 807 758 762 767 747 749 754 766 759 768 774 777 778 783 789 795 798 800 802 803 804 804 804 803 801 800 798 796 794 791 788 786 783 782 781 781 780 778
730 735 748 768 758 790 828 746 740 736 737 751 774 771 767 775 776 778 781 785 796 800 801 802 803 803 803 804 803 802 801 800 798 795 793 790 787 784 782 780 778 777 776 775
731 741 746 763 752 781 735 724 729 742 743 745 753 759 768 776 777 779 785 792 798 799 801 802 803 803 804 803 802 801 800 799 797 794 792 789 786 783 781 779 776 774 774 772
722 735 754 769 768 751 735 735 743 751 757 743 752 759 766 775 779 791 791 794 797 799 802 804 804 803 802 801 801 800 799 797 796 793 790 789 786 784 781 777 775 774 771 769
723 736 756 761 780 786 746 738 732 740 773 743 750 760 768 774 790 797 793 794 797 799 802 803 803 802 801 801 801 800 799 797 795 792 789 787 785 783 779 776 773 771 769 765
749 750 765 759 769 756 738 738 737 776 784 757 758 767 774 785 790 792 792 795 797 800 801 803 803 802 802 802 800 799 798 796 794 791 787 785 782 779 776 772 769 766 764 761
757 761 764 759 769 776 738 747 764 765 758 764 769 776 782 785 788 791 793 795 798 799 800 802 802 804 804 803 801 799 796 794 791 787 784 783 779 775 771 767 763 761 759 756
763 752 766 763 770 750 747 751 751 752 762 768 772 778 785 787 789 791 794 796 797 799 802 803 804 804 804 804 802 799 796 792 788 785 782 779 774 769 765 762 758 755 752 749
741 736 756 755 756 754 752 754 756 759 762 770 775 781 785 787 790 792 795 798 800 801 803 803 805 805 805 804 802 799 795 792 788 783 779 775 770 765 759 757 753 749 746 742
746 745 752 753 750 752 751 756 760 766 769 775 783 786 788 791 792 796 798 800 802 804 803 805 806 805 804 803 801 798 794 790 785 780 776 772 768 763 756 751 748 744 741 739
736 745 755 757 749 753 757 753 759 768 775 780 784 788 792 795 798 800 800 802 804 804 805 804 806 805 803 801 799 796 792 788 784 779 774 770 766 760 754 749 744 739 737 733